STARLINK-35362 (65888 NORAD) Tracking and Keplerian Element Data

This shows tracking and keplerian element data for the satellite.

Feedback or suggestion? Click here.




ElementValue
Catalog65888
NameSTARLINK-35362
Epoch Orbit1259
Epoch Day353.82058894
Epoch Year2025
RAAN22.5046
Inclination53.1632
Eccentricity3E-05
Argument of Perigee278.9614
Mean Anonmoly81.1353
Mean Motion15.30210236
Decay Rate0.00015797
L11 65888U 25224G 25353.82058894 .00015797 00000+0 54415-3 0 9992
L22 65888 53.1632 22.5046 0000300 278.9614 81.1353 15.30210236 12597



Live tracking and technical data element details for STARLINK-35362 (NORAD 65888). STARLINK-35362 can be tracked NOW for your location showing map with azimuth and elevation plus other details from your city location.







IsCatalogInMostPopularTable: catalog: 65888, numindb: 6
Update: records affected: 1



GetName: 65888 STARLINK-35362

Hit Count: updated at: Sat, 11 Apr 2026 20:06:56 GMT